[[{"header":{"parameterUnit":"m.s-1","parameterCategory":2,"la1":30.2991,"la2":30.254,"lo1":-89.0895,"lo2":-89.0444,"dy":0.0017,"dx":0.0017,"nx":28,"ny":28,"refTime":"2024-04-21T21:00:00:Z","depth":"0","parameterNumber":2,"parameterNumberName":"U-component_of_CURRENTS"},"data":[0,0,0,0,0,0,0,0,0,0,0,0,0,0,0,0,0,0,0,0,0,0,0,0,0,0,0,0,0,0,0,0,0,0,0,0,0,0,0,0,0,0,0,0,0,0,0,0,0,0,0,0,0,0,0,0,0,0,0.2638,0.2639,0,0.2693,0.2693,0.2693,0.2725,0.2726,0.2726,0.2727,0.2649,0.2647,0.2644,0,0,0,0,0,0,0,0,0,0,0,0,0,0.2584,0.2585,0.2637,0.2639,0.264,0.2693,0.2693,0.2693,0.2725,0.2726,0.2727,0.2727,0.265,0.2647,0.2644,0,0,0,0,0,0,0,0,0,0,0,0,0,0.2616,0.2585,0.2637,0.2665,0.2668,0.2693,0.2693,0.2694,0.2725,0.2726,0.2727,0.2728,0.2651,0.2647,0.2644,0.2605,0,0,0.2632,0.263,0,0,0,0,0,0,0,0,0.2614,0.2617,0.266,0.2663,0.2667,0.2707,0.2646,0.2659,0.2725,0.2699,0.2727,0.2728,0.2658,0.2654,0.2659,0.2601,0.2598,0.2632,0.2629,0.2628,0.2627,0,0,0,0,0,0,0,0.2612,0.2616,0.2655,0.2661,0.2666,0.2684,0.2688,0.2649,0.2668,0.2702,0.2705,0.2718,0.2659,0.2662,0.2657,0.2597,0.2632,0.2628,0.2626,0.2624,0.2555,0.2555,0,0,0,0,0,0,0.2611,0.2613,0.2653,0.2657,0.2647,0.2684,0.2689,0.269,0.2671,0.2672,0.2717,0.2719,0.2668,0.2661,0.2654,0.2651,0.2628,0.2624,0.2622,0.2554,0.2555,0.2555,0,0,0,0,0,0,0.261,0.2614,0.2651,0.2641,0.2647,0.2684,0.2685,0.2691,0.2696,0.2685,0.2682,0.2718,0.2669,0.2659,0.2629,0.2646,0.2622,0.2619,0.2554,0.2555,0.2555,0.2615,0,0,0,0,0,0,0.2608,0.2613,0.2612,0.264,0.2648,0.2664,0.2685,0.2691,0.2705,0.2708,0.2684,0.2679,0.2669,0.2635,0.2626,0.264,0.2616,0.2553,0.2554,0.2555,0.2613,0.2618,0.2622,0,0,0,0,0,0.2605,0.2599,0.2611,0.2617,0.2646,0.2664,0.2669,0.2696,0.2704,0.2703,0.2695,0.2679,0.2635,0.2632,0.2621,0.2635,0.2553,0.2554,0.2555,0.261,0.2617,0.2622,0,0,0,0,0,0,0.2567,0.2603,0.2617,0.2619,0.2642,0.2671,0.2677,0.2691,0.2686,0.2686,0.2671,0.2664,0.2649,0.2626,0.2624,0.2618,0.2595,0.2594,0.2642,0.2647,0.2652,0.2667,0.2613,0,0,0,0,0,0.2561,0.2572,0.2603,0.2606,0.2615,0.2643,0.2654,0.2672,0.2676,0.2677,0.2663,0.265,0.2644,0.2632,0.2613,0.2594,0.2608,0.26,0.2605,0.2609,0.2614,0.2647,0.2656,0.2559,0.2559,0.2559,0,0,0.2552,0.2571,0.258,0.2601,0.2619,0.2641,0.265,0.2665,0.2684,0.2663,0.2665,0.2655,0.2641,0.2638,0.263,0.262,0.2649,0.261,0.2614,0.2617,0.2649,0.2659,0.2667,0.2559,0.2559,0.2559,0,0,0.2545,0.255,0.2564,0.258,0.261,0.2631,0.2634,0.2657,0.2666,0.2666,0.267,0.267,0.2642,0.2654,0.2653,0.2664,0.2671,0.2658,0.2695,0.2728,0.2736,0.2744,0.2802,0.2815,0.2664,0.2664,0.2664,0,0.2535,0.2553,0.2568,0.2584,0.2605,0.2627,0.2646,0.2659,0.267,0.2678,0.2671,0.2677,0.2657,0.2683,0.27,0.2677,0.2706,0.2678,0.2736,0.2744,0.2751,0.2808,0.2821,0.2667,0.2667,0.2667,0.2666,0,0.2548,0.256,0.2564,0.2601,0.2619,0.2634,0.2662,0.2674,0.2686,0.2703,0.2718,0.2709,0.2722,0.272,0.2713,0.2757,0.2768,0.2739,0.2727,0.2765,0.2823,0.2835,0.2672,0.2671,0.267,0.2669,0,0,0.2523,0.2569,0.2567,0.2591,0.2629,0.2645,0.2675,0.271,0.274,0.2743,0.2788,0.2781,0.2787,0.2788,0.2786,0.2812,0.2893,0.2803,0.2803,0.2871,0.2995,0.2938,0.2946,0.288,0.2882,0.2883,0.3027,0,0.2529,0.2566,0.2586,0.2623,0.2645,0.2676,0.2706,0.2738,0.2765,0.2808,0.2816,0.2848,0.2811,0.2837,0.2856,0.2891,0.2924,0.2858,0.2939,0.2942,0.2894,0.2957,0.279,0.2898,0.3039,0.3041,0.3043,0,0.2529,0.2557,0.2596,0.2646,0.2658,0.2684,0.2746,0.2777,0.2837,0.2859,0.2896,0.2916,0.2974,0.2929,0.3008,0.2974,0.2987,0.3002,0.3007,0.2938,0.2906,0.2876,0.2915,0.2824,0.3062,0.306,0.3059,0,0.2513,0.2556,0.2592,0.2609,0.2673,0.2694,0.2729,0.2786,0.2824,0.2907,0.2957,0.3008,0.3053,0.3085,0.3114,0.3079,0.3201,0.3155,0.3115,0.3113,0.2977,0.2958,0.2938,0.3196,0.3196,0.3195,0.3195,0,0.2511,0.2534,0.2585,0.2607,0.265,0.2689,0.2741,0.2789,0.2865,0.2918,0.2983,0.3038,0.309,0.316,0.3172,0.3199,0.325,0.3143,0.3146,0.2994,0.2976,0.2891,0.2849,0.3201,0.3199,0.3198,0.3197,0,0.2501,0.2529,0.2574,0.2632,0.2646,0.2681,0.2747,0.2787,0.2866,0.2952,0.299,0.3089,0.3181,0.324,0.331,0.3266,0.3202,0.3288,0.3123,0.3101,0.2944,0.2911,0.2813,0.2739,0.3281,0.3281,0.328,0,0.2524,0.2542,0.2591,0.2611,0.2637,0.2681,0.271,0.2779,0.2825,0.2965,0.3008,0.3132,0.3192,0.3302,0.3266,0.331,0.3192,0.3152,0.3026,0.2931,0.2898,0.2786,0.2724,0.2895,0.2891,0.2888,0.2886,0,0.2583,0.2582,0.2617,0.2631,0.2655,0.268,0.2725,0.2757,0.2845,0.2912,0.2988,0.3056,0.3152,0.3101,0.3158,0.3147,0.2974,0.309,0.3023,0.2623,0.2467,0.2398,0.2837,0.2859,0.2862,0.2864,0.2865,0.2866,0.2639,0.2653,0.2669,0.2665,0.268,0.2671,0.2659,0.2709,0.2755,0.2817,0.2904,0.2938,0.2926,0.2971,0.2951,0.2781,0.2802,0.265,0.2638,0.255,0.2395,0.2791,0.2783,0.2785,0.2787,0.2789,0.279,0,0.2711,0.2697,0.2703,0.2681,0.2646,0.2652,0.2659,0.2619,0.2619,0.2698,0.2728,0.2674,0.2622,0.2602,0.2453,0.2332,0.2225,0.2262,0.2058,0.2036,0.2417,0.2312,0.216,0.216,0.216,0.216,0.216,0.216,0.2759,0.2755,0.2709,0.2642,0.2606,0.2522,0.2492,0.245,0.2463,0.2396,0.2348,0.2359,0.2339,0.2206,0.2036,0.1988,0.1838,0.1723,0.1781,0.2033,0.2067,0.21,0.1991,0.1774,0.1773,0.128,0.1276,0.1273]},{"header":{"parameterUnit":"m.s-1","parameterCategory":2,"la1":30.2991,"la2":30.254,"lo1":-89.0895,"lo2":-89.0444,"dy":0.0017,"dx":0.0017,"nx":28,"ny":28,"refTime":"2024-04-21T21:00:00:Z","depth":"0","parameterNumber":3,"parameterNumberName":"V-component_of_CURRENTS"},"data":[0,0,0,0,0,0,0,0,0,0,0,0,0,0,0,0,0,0,0,0,0,0,0,0,0,0,0,0,0,0,0,0,0,0,0,0,0,0,0,0,0,0,0,0,0,0,0,0,0,0,0,0,0,0,0,0,0,0,-0.0256,-0.0257,0,-0.0341,-0.0342,-0.0343,-0.0398,-0.0399,-0.04,-0.04,-0.0395,-0.0395,-0.0394,0,0,0,0,0,0,0,0,0,0,0,0,0,-0.0171,-0.0172,-0.0256,-0.0257,-0.0259,-0.0341,-0.0342,-0.0343,-0.0398,-0.0399,-0.04,-0.0401,-0.0396,-0.0395,-0.0394,0,0,0,0,0,0,0,0,0,0,0,0,0,-0.0224,-0.0172,-0.0256,-0.0299,-0.0304,-0.0341,-0.0342,-0.0343,-0.0398,-0.0399,-0.04,-0.0401,-0.0396,-0.0395,-0.0394,-0.0367,0,0,-0.039,-0.039,0,0,0,0,0,0,0,0,-0.0221,-0.0226,-0.0291,-0.0296,-0.0302,-0.0363,-0.0311,-0.0348,-0.0398,-0.0359,-0.04,-0.0401,-0.0378,-0.0378,-0.0388,-0.0366,-0.0366,-0.039,-0.039,-0.0389,-0.0389,0,0,0,0,0,0,0,-0.0217,-0.0223,-0.0286,-0.0293,-0.0299,-0.0324,-0.0332,-0.0318,-0.0357,-0.0362,-0.0367,-0.0382,-0.038,-0.0389,-0.0388,-0.0366,-0.039,-0.0389,-0.0389,-0.0388,-0.0324,-0.0323,0,0,0,0,0,0,-0.0211,-0.022,-0.0284,-0.0289,-0.0267,-0.0325,-0.0334,-0.034,-0.036,-0.0365,-0.0381,-0.0384,-0.0391,-0.039,-0.0388,-0.0352,-0.0389,-0.0388,-0.0387,-0.0325,-0.0324,-0.0323,0,0,0,0,0,0,-0.0208,-0.0215,-0.028,-0.026,-0.027,-0.0326,-0.0332,-0.0341,-0.0354,-0.0375,-0.0379,-0.0385,-0.0392,-0.039,-0.0371,-0.0352,-0.0387,-0.0386,-0.0326,-0.0325,-0.0323,-0.0281,0,0,0,0,0,0,-0.0205,-0.0213,-0.0213,-0.0259,-0.0271,-0.0294,-0.0331,-0.0342,-0.0363,-0.0367,-0.0379,-0.038,-0.0392,-0.0372,-0.0369,-0.0351,-0.0386,-0.0328,-0.0326,-0.0324,-0.0284,-0.0278,-0.0274,0,0,0,0,0,-0.0202,-0.0192,-0.0212,-0.0221,-0.027,-0.0294,-0.0301,-0.0343,-0.0361,-0.0358,-0.0367,-0.038,-0.0358,-0.037,-0.0367,-0.0348,-0.0329,-0.0326,-0.0324,-0.0286,-0.0279,-0.0274,0,0,0,0,0,0,-0.0157,-0.0199,-0.0222,-0.0227,-0.0257,-0.0304,-0.0306,-0.0336,-0.0342,-0.0341,-0.0363,-0.0363,-0.0342,-0.0346,-0.0358,-0.0324,-0.0347,-0.0344,-0.0319,-0.0313,-0.0308,-0.0284,-0.0385,0,0,0,0,0,-0.0147,-0.0153,-0.0196,-0.0203,-0.021,-0.0256,-0.0272,-0.0298,-0.0315,-0.0321,-0.033,-0.0333,-0.0329,-0.0322,-0.0319,-0.0291,-0.0291,-0.0278,-0.0273,-0.0269,-0.0247,-0.0239,-0.0231,-0.0315,-0.0315,-0.0315,0,0,-0.0138,-0.0159,-0.0166,-0.0194,-0.0217,-0.022,-0.0266,-0.0279,-0.0277,-0.0314,-0.0298,-0.0312,-0.0319,-0.0298,-0.0288,-0.0298,-0.0245,-0.0266,-0.0262,-0.0243,-0.0236,-0.0227,-0.022,-0.0314,-0.0314,-0.0314,0,0,-0.011,-0.013,-0.0121,-0.0136,-0.0165,-0.019,-0.019,-0.0225,-0.0232,-0.0223,-0.0252,-0.0249,-0.0242,-0.0246,-0.0247,-0.0205,-0.0221,-0.021,-0.016,-0.0153,-0.0146,-0.0139,-0.013,-0.0123,-0.0205,-0.0205,-0.0205,0,-0.0099,-0.0093,-0.0123,-0.0113,-0.0119,-0.017,-0.0156,-0.0168,-0.0194,-0.0178,-0.0207,-0.0198,-0.0214,-0.0185,-0.0184,-0.0192,-0.0192,-0.0186,-0.0146,-0.014,-0.0134,-0.0126,-0.0119,-0.0203,-0.0203,-0.0203,-0.0203,0,-0.0061,-0.0059,-0.0049,-0.0055,-0.006,-0.0056,-0.0078,-0.0072,-0.0089,-0.0101,-0.0076,-0.0106,-0.0098,-0.0112,-0.0138,-0.0104,-0.0118,-0.0145,-0.0162,-0.0123,-0.0117,-0.011,-0.0199,-0.02,-0.0201,-0.0201,0,0,-0.0029,-0.0026,-0.0021,-0.0007,-0.0026,-0.0021,-0.0002,0.001,0.0043,0.0016,0.0064,0.0034,0.0013,0.0011,-0.0026,-0.0028,-0.0005,-0.0068,-0.0068,-0.0057,0.0016,0.0012,0.0019,-0.003,-0.0029,-0.0028,0.0004,0,0.0008,0.0046,0.0035,0.0071,0.0091,0.0069,0.0097,0.0105,0.0109,0.0148,0.0122,0.0151,0.0061,0.0071,0.005,0.0018,0.0015,-0.0011,-0.0022,-0.0022,-0.003,0.0027,0.0025,0.0053,0.001,0.0011,0.0012,0,0.0054,0.0074,0.012,0.0151,0.0162,0.018,0.0231,0.0248,0.0285,0.0296,0.0303,0.0284,0.0282,0.0203,0.0158,0.0145,0.0088,0.0051,0.0051,0.0043,-0.0013,0.0008,0.0066,-0.0031,0.0021,0.0021,0.002,0,0.011,0.0138,0.0182,0.0189,0.0214,0.0249,0.0268,0.0304,0.0355,0.0402,0.0459,0.0423,0.0439,0.0359,0.0264,0.0217,0.0228,0.0152,0.0098,0.0096,0.0093,0.0089,0.006,0.0134,0.0134,0.0134,0.0134,0,0.0159,0.0195,0.0216,0.0244,0.032,0.0314,0.0406,0.0426,0.0489,0.0586,0.0542,0.0612,0.0479,0.0462,0.0339,0.0257,0.0283,0.0134,0.0115,0.0107,0.0105,0.0017,-0.004,0.0135,0.0134,0.0134,0.0134,0,0.0215,0.0221,0.0281,0.0325,0.0349,0.0409,0.0497,0.0566,0.0613,0.0744,0.0775,0.0774,0.0753,0.0631,0.0526,0.0378,0.0239,0.0252,0.0255,0.0236,0.0058,0.0004,-0.0018,-0.0059,0.0187,0.0188,0.0188,0,0.0242,0.0277,0.0354,0.0401,0.0427,0.051,0.0577,0.063,0.0715,0.0853,0.0934,0.0958,0.0998,0.0846,0.0609,0.0432,0.0305,0.0281,0.0179,0.0079,0.0004,-0.0041,-0.0078,0.0188,0.0188,0.0188,0.0188,0,0.0292,0.0323,0.0374,0.0478,0.0555,0.0653,0.0755,0.0843,0.0936,0.1058,0.1198,0.125,0.1122,0.0938,0.0685,0.0531,0.0217,0.0277,0.0177,0.0021,-0.003,-0.0089,0.0134,0.019,0.0189,0.0189,0.0189,0.0189,0.0328,0.0371,0.0439,0.0541,0.0644,0.0775,0.0867,0.0994,0.115,0.1334,0.1369,0.1474,0.1205,0.086,0.0656,0.0256,0.0243,0.0093,0.0043,0.0012,-0.0044,0.0189,0.0216,0.0216,0.0216,0.0216,0.0216,0,0.0336,0.0388,0.0491,0.0611,0.0736,0.0786,0.0967,0.107,0.126,0.1445,0.1567,0.1509,0.1196,0.0851,0.0316,0.005,-0.0054,-0.0085,-0.0161,-0.0185,0.0027,0.0009,-0.0011,-0.0011,-0.001,-0.001,-0.001,-0.001,0.0335,0.0403,0.0458,0.0643,0.0751,0.0908,0.1012,0.1188,0.1344,0.1551,0.163,0.1664,0.1399,0.0558,-0.0018,-0.0154,-0.0317,-0.0351,-0.042,-0.03,-0.0288,-0.0277,-0.0309,-0.0394,-0.0395,-0.062,-0.0622,-0.0624]}],[{"header":{"parameterUnit":"m.s-1","parameterCategory":2,"la1":30.2991,"la2":30.254,"lo1":-89.0895,"lo2":-89.0444,"dy":0.0017,"dx":0.0017,"nx":28,"ny":28,"refTime":"2024-04-21T21:00:00:Z","depth":"2","parameterNumber":2,"parameterNumberName":"U-component_of_CURRENTS"},"data":[0,0,0,0,0,0,0,0,0,0,0,0,0,0,0,0,0,0,0,0,0,0,0,0,0,0,0,0,0,0,0,0,0,0,0,0,0,0,0,0,0,0,0,0,0,0,0,0,0,0,0,0,0,0,0,0,0,0,0.2083,0.2083,0,0.2077,0.2077,0.2077,0.2025,0.2024,0.2023,0.2022,0.2034,0.2036,0.2037,0,0,0,0,0,0,0,0,0,0,0,0,0,0.2098,0.2097,0.2083,0.2083,0.2083,0.2077,0.2077,0.2077,0.2025,0.2024,0.2022,0.2021,0.2034,0.2036,0.2037,0,0,0,0,0,0,0,0,0,0,0,0,0,0.2091,0.2097,0.2083,0.2058,0.2055,0.2077,0.2077,0.2077,0.2026,0.2024,0.2022,0.202,0.2033,0.2035,0.2038,0.2087,0,0,0.2044,0.2045,0,0,0,0,0,0,0,0,0.2091,0.209,0.2061,0.2059,0.2057,0.2051,0.2087,0.2081,0.2026,0.2036,0.2022,0.2019,0.2044,0.2045,0.2046,0.2087,0.2088,0.2044,0.2046,0.2047,0.2047,0,0,0,0,0,0,0,0.2091,0.209,0.208,0.2062,0.2059,0.2063,0.2059,0.2085,0.205,0.2035,0.2031,0.2033,0.2042,0.2044,0.2046,0.2088,0.2044,0.2046,0.2048,0.2048,0.2101,0.2101,0,0,0,0,0,0,0.2094,0.2091,0.208,0.208,0.2071,0.2064,0.206,0.2054,0.2049,0.2046,0.2034,0.203,0.2041,0.2044,0.2046,0.2082,0.2047,0.2049,0.205,0.2101,0.2101,0.2101,0,0,0,0,0,0,0.2094,0.2093,0.208,0.2086,0.2085,0.2065,0.2059,0.2055,0.2061,0.2048,0.2045,0.2045,0.204,0.2043,0.2046,0.2083,0.205,0.2052,0.2101,0.2101,0.2101,0.2168,0,0,0,0,0,0,0.2094,0.2092,0.208,0.2086,0.2085,0.2078,0.2061,0.2056,0.2065,0.2059,0.2058,0.2056,0.2039,0.2043,0.2048,0.2085,0.2053,0.2101,0.2101,0.2101,0.2165,0.217,0.2174,0,0,0,0,0,0.2095,0.2074,0.2079,0.2078,0.2071,0.2078,0.2077,0.2057,0.2067,0.206,0.2052,0.2056,0.2047,0.2045,0.2051,0.209,0.2101,0.2101,0.2101,0.2163,0.2169,0.2174,0,0,0,0,0,0,0.2052,0.2068,0.2073,0.2052,0.2064,0.2069,0.2066,0.2074,0.2068,0.2068,0.2062,0.206,0.2082,0.2069,0.2066,0.2099,0.2075,0.2076,0.212,0.2125,0.213,0.2141,0.2055,0,0,0,0,0,0.2047,0.206,0.2062,0.2059,0.2063,0.2079,0.2081,0.2076,0.2078,0.2074,0.2078,0.2078,0.2091,0.2091,0.2095,0.212,0.2125,0.2143,0.2148,0.2152,0.2162,0.2191,0.22,0.2102,0.2102,0.2102,0,0,0.2047,0.2049,0.2062,0.2056,0.207,0.2082,0.2075,0.2085,0.2098,0.2082,0.2099,0.2105,0.2101,0.2117,0.2126,0.2109,0.2182,0.2152,0.2156,0.2164,0.2192,0.2202,0.2211,0.2102,0.2102,0.2102,0,0,0.2046,0.2044,0.2053,0.2061,0.2073,0.2087,0.2098,0.2112,0.2111,0.2134,0.2127,0.2144,0.2162,0.2159,0.2164,0.2198,0.2212,0.2205,0.2236,0.2264,0.2274,0.2282,0.2307,0.2317,0.2199,0.2199,0.2199,0,0.2039,0.2042,0.2055,0.2056,0.2067,0.2098,0.2107,0.2123,0.2136,0.2147,0.2138,0.2183,0.2184,0.2215,0.222,0.2215,0.2229,0.2222,0.2274,0.2282,0.2289,0.2312,0.2323,0.2202,0.2202,0.2201,0.2201,0,0.2044,0.2046,0.2054,0.208,0.2088,0.2107,0.2129,0.2152,0.2179,0.2194,0.2232,0.2231,0.2255,0.2264,0.2258,0.2311,0.2306,0.2287,0.2268,0.2303,0.2325,0.2335,0.2207,0.2206,0.2205,0.2204,0,0,0.2042,0.2057,0.2066,0.207,0.2101,0.2112,0.2152,0.2186,0.2233,0.2244,0.2296,0.2314,0.2329,0.2334,0.2335,0.2357,0.2427,0.2349,0.2349,0.2389,0.2498,0.2416,0.2418,0.2424,0.2426,0.2427,0.2496,0,0.2049,0.2055,0.2065,0.2094,0.2096,0.2134,0.2177,0.2213,0.2257,0.2315,0.2329,0.2384,0.2351,0.2388,0.2401,0.2426,0.2453,0.241,0.2445,0.2446,0.2382,0.2427,0.2229,0.2266,0.2505,0.2507,0.2508,0,0.2048,0.205,0.2069,0.2097,0.2107,0.2142,0.2223,0.2258,0.2342,0.2376,0.2421,0.2453,0.2496,0.2474,0.2514,0.2491,0.2507,0.2515,0.2517,0.2425,0.2381,0.2267,0.2274,0.2523,0.2522,0.2521,0.252,0,0.2038,0.2054,0.2074,0.2084,0.2126,0.2158,0.2202,0.2283,0.2323,0.2434,0.2483,0.2531,0.257,0.259,0.2599,0.2576,0.2649,0.2612,0.255,0.2545,0.2373,0.2348,0.266,0.266,0.266,0.266,0.2659,0,0.2032,0.2047,0.2079,0.2087,0.213,0.2162,0.2234,0.2294,0.2388,0.2445,0.2516,0.2564,0.2605,0.2644,0.2643,0.262,0.2679,0.2572,0.2561,0.2388,0.2365,0.2577,0.2567,0.2662,0.2662,0.2661,0.2661,0,0.2029,0.2045,0.2059,0.2104,0.2121,0.216,0.2236,0.2294,0.2387,0.247,0.2513,0.2604,0.2647,0.2674,0.2722,0.2663,0.2668,0.2652,0.2446,0.2409,0.2536,0.2528,0.2585,0.2582,0.2581,0.2579,0.2578,0,0.2046,0.205,0.2075,0.2088,0.2115,0.2168,0.2212,0.2291,0.2341,0.2474,0.2505,0.2601,0.2619,0.2646,0.2603,0.2589,0.2651,0.2394,0.2301,0.2546,0.2531,0.2526,0.252,0.2107,0.2102,0.2098,0.2095,0,0.2077,0.2085,0.2098,0.2104,0.2134,0.2152,0.2211,0.2228,0.2328,0.238,0.2437,0.2472,0.2513,0.2392,0.2395,0.2358,0.2374,0.2307,0.2635,0.2148,0.2099,0.2083,0.2093,0.2058,0.2062,0.2064,0.2066,0.2068,0.2123,0.2121,0.2125,0.2131,0.2131,0.2111,0.2099,0.2136,0.2154,0.218,0.2282,0.2252,0.2258,0.2134,0.2062,0.2015,0.2169,0.206,0.2072,0.2088,0.2012,0.1961,0.188,0.1883,0.1885,0.1887,0.1889,0,0.2217,0.2165,0.2153,0.2118,0.2076,0.2105,0.2076,0.2015,0.196,0.2009,0.2009,0.1832,0.1754,0.178,0.1643,0.162,0.1599,0.1556,0.1512,0.155,0.1584,0.1481,0.1209,0.1207,0.1205,0.1203,0,0,0.2238,0.2238,0.219,0.2081,0.2043,0.1944,0.1894,0.1792,0.1744,0.1632,0.1601,0.1697,0.1742,0.1461,0.1408,0.129,0.1413,0.1239,0.1789,0.1779,0.181,0.1884,0.1769,0,0,0,0,0]},{"header":{"parameterUnit":"m.s-1","parameterCategory":2,"la1":30.2991,"la2":30.254,"lo1":-89.0895,"lo2":-89.0444,"dy":0.0017,"dx":0.0017,"nx":28,"ny":28,"refTime":"2024-04-21T21:00:00:Z","depth":"2","parameterNumber":3,"parameterNumberName":"V-component_of_CURRENTS"},"data":[0,0,0,0,0,0,0,0,0,0,0,0,0,0,0,0,0,0,0,0,0,0,0,0,0,0,0,0,0,0,0,0,0,0,0,0,0,0,0,0,0,0,0,0,0,0,0,0,0,0,0,0,0,0,0,0,0,0,0.028,0.028,0,0.0252,0.0251,0.0251,0.0267,0.0269,0.027,0.0271,0.0215,0.0213,0.021,0,0,0,0,0,0,0,0,0,0,0,0,0,0.0271,0.0271,0.028,0.028,0.0281,0.0252,0.0251,0.025,0.0267,0.0269,0.027,0.0272,0.0216,0.0213,0.021,0,0,0,0,0,0,0,0,0,0,0,0,0,0.0257,0.0271,0.028,0.0289,0.029,0.0252,0.0251,0.025,0.0267,0.0269,0.0271,0.0272,0.0217,0.0213,0.0209,0.0145,0,0,0.0197,0.0195,0,0,0,0,0,0,0,0,0.0258,0.0257,0.0288,0.0289,0.029,0.027,0.0228,0.0216,0.0266,0.027,0.0271,0.0273,0.0233,0.0228,0.0211,0.0143,0.014,0.0196,0.0194,0.0192,0.0191,0,0,0,0,0,0,0,0.0259,0.0258,0.0264,0.0288,0.0289,0.0269,0.0269,0.0225,0.0236,0.027,0.0272,0.0277,0.0233,0.0215,0.021,0.0139,0.0197,0.0193,0.019,0.0189,0.0114,0.0115,0,0,0,0,0,0,0.0275,0.0259,0.0265,0.0263,0.0284,0.0268,0.0268,0.027,0.0237,0.0236,0.0275,0.0278,0.0221,0.0214,0.0208,0.0206,0.0192,0.0188,0.0186,0.0114,0.0114,0.0115,0,0,0,0,0,0,0.0275,0.0275,0.0266,0.0265,0.0263,0.0267,0.0268,0.0269,0.026,0.0243,0.0241,0.027,0.0222,0.0213,0.0199,0.0201,0.0187,0.0183,0.0113,0.0114,0.0114,0.0153,0,0,0,0,0,0,0.0274,0.0275,0.028,0.0266,0.0264,0.0267,0.0267,0.0267,0.0263,0.0266,0.0236,0.0233,0.0223,0.0205,0.0195,0.0195,0.018,0.0113,0.0113,0.0114,0.0151,0.0155,0.0158,0,0,0,0,0,0.0274,0.0287,0.028,0.0281,0.027,0.0268,0.0265,0.027,0.0261,0.0266,0.0252,0.0235,0.0204,0.0202,0.019,0.0189,0.0112,0.0113,0.0114,0.015,0.0154,0.0158,0,0,0,0,0,0,0.0287,0.029,0.0282,0.0295,0.0289,0.0274,0.0276,0.0265,0.0252,0.0256,0.0229,0.0225,0.0215,0.0193,0.0192,0.0173,0.0157,0.0156,0.0189,0.0192,0.0196,0.0218,0.0176,0,0,0,0,0,0.0288,0.0295,0.0292,0.0297,0.0297,0.0277,0.0273,0.0277,0.0266,0.0261,0.0238,0.0219,0.0203,0.0195,0.0175,0.015,0.0134,0.0146,0.015,0.0153,0.0164,0.0143,0.0146,0.0118,0.0118,0.0118,0,0,0.029,0.0294,0.0295,0.0299,0.0288,0.0296,0.0279,0.0283,0.029,0.0254,0.0247,0.0223,0.0199,0.0191,0.0183,0.0177,0.0151,0.0154,0.0157,0.0167,0.0144,0.0147,0.0149,0.0119,0.0119,0.0118,0,0,0.0305,0.0301,0.0315,0.0317,0.032,0.031,0.0312,0.0298,0.0297,0.0284,0.0268,0.0253,0.0212,0.0208,0.0198,0.0202,0.0169,0.019,0.0223,0.0203,0.0205,0.0206,0.0186,0.0186,0.0194,0.0194,0.0194,0,0.0305,0.0327,0.0317,0.0335,0.0347,0.0319,0.0341,0.0326,0.0309,0.0311,0.0298,0.0255,0.0226,0.0226,0.0233,0.0209,0.0192,0.0208,0.0207,0.0209,0.021,0.0188,0.0187,0.0196,0.0196,0.0196,0.0195,0,0.0341,0.0354,0.0361,0.0374,0.0383,0.0396,0.039,0.0383,0.0366,0.0356,0.0347,0.0309,0.0291,0.0273,0.0251,0.0246,0.0229,0.0212,0.0197,0.0215,0.0191,0.019,0.0199,0.0198,0.0198,0.0197,0,0,0.0343,0.038,0.038,0.0405,0.0412,0.0427,0.0432,0.044,0.0451,0.0419,0.0434,0.0389,0.0363,0.035,0.0315,0.0293,0.0272,0.0257,0.0255,0.0239,0.0226,0.0201,0.0196,0.0251,0.0251,0.0251,0.0206,0,0.0368,0.042,0.0432,0.0474,0.0501,0.0493,0.0505,0.0509,0.0497,0.0499,0.046,0.0457,0.0394,0.039,0.0354,0.0297,0.0271,0.0287,0.0211,0.0209,0.0185,0.0194,0.0217,0.0177,0.0204,0.0204,0.0203,0,0.0403,0.0436,0.0491,0.0541,0.0553,0.0572,0.0602,0.0616,0.0607,0.0599,0.058,0.0547,0.0511,0.0458,0.0365,0.0376,0.0306,0.0256,0.0253,0.0218,0.0181,0.0164,0.0173,0.02,0.02,0.0201,0.0201,0,0.0432,0.0479,0.0531,0.0548,0.0592,0.0617,0.0639,0.0646,0.0677,0.0671,0.0691,0.0627,0.0615,0.0516,0.0397,0.0382,0.0297,0.0264,0.0176,0.0173,0.0173,0.017,0.0203,0.0203,0.0203,0.0203,0.0204,0,0.0467,0.0505,0.0548,0.0583,0.0643,0.0664,0.0727,0.0731,0.076,0.0813,0.0751,0.0771,0.0629,0.056,0.0433,0.0301,0.032,0.0188,0.0162,0.0186,0.0185,0.0191,0.019,0.0202,0.0202,0.0202,0.0203,0,0.0492,0.0518,0.0585,0.0643,0.0664,0.0713,0.0795,0.0839,0.0856,0.0925,0.0934,0.0884,0.0788,0.064,0.0486,0.0363,0.0234,0.0182,0.0219,0.0198,0.0113,0.0115,0.008,0.0079,0.0078,0.0077,0.0076,0,0.0512,0.0547,0.0633,0.0678,0.0708,0.0781,0.0834,0.0878,0.0939,0.0999,0.1041,0.0977,0.0928,0.0688,0.0471,0.0255,0.0228,0.0138,0.0107,0.0123,0.0101,0.0105,0.0108,0.0121,0.012,0.012,0.012,0,0.0544,0.0573,0.0631,0.0725,0.0792,0.0881,0.0968,0.1029,0.1097,0.1148,0.1192,0.1158,0.0943,0.0724,0.0437,0.0291,0.0169,0.0125,0.0141,0.0146,0.0157,0.0137,0.014,0.0118,0.0118,0.0118,0.0118,0.0118,0.0571,0.0604,0.068,0.077,0.086,0.0973,0.1051,0.114,0.1236,0.1313,0.1283,0.1229,0.1,0.0615,0.0383,0.0145,0.0148,0.0059,0.0062,0.0064,0.0075,0.0083,0.0032,0.0032,0.0032,0.0032,0.0031,0,0.0575,0.0626,0.0719,0.0837,0.0946,0.099,0.1134,0.1206,0.1314,0.1355,0.1365,0.1132,0.0899,0.0643,0.0295,0.0078,0.0065,0.0007,0.0047,0.0051,0.0054,0.0066,0.002,0.0019,0.0018,0.0018,0,0,0.0586,0.0645,0.0693,0.0872,0.0973,0.1111,0.1195,0.1292,0.135,0.1367,0.133,0.1253,0.0959,0.0701,0.0417,0.0225,0.0184,0.0179,0.0212,0.0298,0.0303,0.0107,0.0132,0,0,0,0,0]}],[{"header":{"parameterUnit":"m.s-1","parameterCategory":2,"la1":30.2991,"la2":30.254,"lo1":-89.0895,"lo2":-89.0444,"dy":0.0017,"dx":0.0017,"nx":28,"ny":28,"refTime":"2024-04-21T21:00:00:Z","depth":"4","parameterNumber":2,"parameterNumberName":"U-component_of_CURRENTS"},"data":[0,0,0,0,0,0,0,0,0,0,0,0,0,0,0,0,0,0,0,0,0,0,0,0,0,0,0,0,0,0,0,0,0,0,0,0,0,0,0,0,0,0,0,0,0,0,0,0,0,0,0,0,0,0,0,0,0,0,0.0929,0.093,0,0.099,0.0991,0.0992,0.1037,0.1037,0.1038,0.1038,0.1149,0.1152,0.1154,0,0,0,0,0,0,0,0,0,0,0,0,0,0.0894,0.0894,0.0929,0.093,0.0931,0.099,0.0991,0.0992,0.1037,0.1037,0.1038,0.1039,0.1149,0.1151,0.1154,0,0,0,0,0,0,0,0,0,0,0,0,0,0.0926,0.0894,0.0929,0.0962,0.0966,0.099,0.0991,0.0992,0.1037,0.1037,0.1038,0.1039,0.1148,0.1151,0.1155,0.116,0,0,0.1166,0.1168,0,0,0,0,0,0,0,0,0.0924,0.0927,0.0956,0.096,0.0964,0.1008,0.102,0.1051,0.1036,0.1008,0.1039,0.1039,0.1107,0.1114,0.1121,0.1166,0.117,0.1166,0.1168,0.117,0.1171,0,0,0,0,0,0,0,0.0922,0.0925,0.0951,0.0957,0.0962,0.0989,0.0994,0.1026,0.1052,0.101,0.1014,0.1024,0.111,0.1117,0.1124,0.1172,0.1166,0.1169,0.1172,0.1173,0.1326,0.1328,0,0,0,0,0,0,0.0914,0.0922,0.0949,0.0953,0.0948,0.0989,0.0994,0.0992,0.105,0.106,0.1023,0.1026,0.111,0.112,0.1128,0.1215,0.117,0.1173,0.1176,0.1324,0.1326,0.1328,0,0,0,0,0,0,0.0913,0.0916,0.0947,0.0942,0.0948,0.0988,0.0986,0.0993,0.1023,0.106,0.107,0.1049,0.1111,0.1123,0.1186,0.1217,0.1175,0.1178,0.1322,0.1325,0.1327,0.1341,0,0,0,0,0,0,0.0912,0.0915,0.0926,0.0941,0.0948,0.0976,0.0985,0.0993,0.1027,0.1032,0.1086,0.1095,0.1113,0.1181,0.119,0.1221,0.1181,0.1319,0.1323,0.1326,0.1338,0.1344,0.1349,0,0,0,0,0,0.091,0.0914,0.0926,0.093,0.0956,0.0977,0.0983,0.1014,0.1028,0.1044,0.1089,0.1095,0.121,0.1185,0.1196,0.1229,0.1318,0.1322,0.1326,0.1336,0.1343,0.1349,0,0,0,0,0,0,0.0912,0.092,0.0933,0.0942,0.0967,0.0985,0.1005,0.1024,0.107,0.1087,0.1116,0.1129,0.1197,0.1214,0.1186,0.1286,0.1266,0.1272,0.127,0.1277,0.1282,0.1281,0.1184,0,0,0,0,0,0.0915,0.0912,0.0936,0.0944,0.0958,0.0986,0.1004,0.1028,0.1062,0.1083,0.1123,0.1172,0.1217,0.1248,0.1289,0.134,0.135,0.1371,0.1376,0.138,0.1389,0.1435,0.1445,0.1342,0.1342,0.1342,0,0,0.0913,0.0921,0.0919,0.0944,0.0963,0.0989,0.0999,0.1032,0.1065,0.1089,0.1155,0.1193,0.1236,0.1297,0.1329,0.1318,0.1413,0.1386,0.1389,0.1395,0.1441,0.145,0.1459,0.1345,0.1344,0.1344,0,0,0.0909,0.0921,0.0925,0.0947,0.0986,0.1005,0.102,0.1061,0.1094,0.1157,0.1185,0.1244,0.1314,0.1348,0.1373,0.1434,0.1439,0.1453,0.148,0.1525,0.1533,0.1541,0.1548,0.1557,0.1456,0.1456,0.1456,0,0.0921,0.092,0.0933,0.0954,0.0976,0.1013,0.104,0.1075,0.1137,0.1173,0.1187,0.1304,0.1337,0.1407,0.1432,0.1445,0.1462,0.1446,0.153,0.1538,0.1545,0.1551,0.156,0.1457,0.1457,0.1457,0.1456,0,0.0912,0.0935,0.094,0.0972,0.1003,0.1027,0.1078,0.1125,0.1173,0.1214,0.1305,0.1356,0.1426,0.1446,0.146,0.1534,0.1524,0.1527,0.1506,0.1556,0.156,0.1568,0.1459,0.1458,0.1458,0.1457,0,0,0.0894,0.0927,0.0936,0.0962,0.1016,0.1041,0.11,0.1164,0.1215,0.1289,0.1356,0.1438,0.1475,0.1506,0.1534,0.1574,0.1632,0.1578,0.158,0.1572,0.1713,0.1579,0.1575,0.1653,0.1656,0.1657,0.1687,0,0.0894,0.0922,0.0944,0.0994,0.1021,0.1074,0.1123,0.1194,0.1261,0.1338,0.1406,0.1485,0.1494,0.1541,0.1583,0.1631,0.166,0.1622,0.1679,0.168,0.1543,0.1583,0.1664,0.1694,0.1696,0.1697,0.1698,0,0.0885,0.091,0.0943,0.1012,0.103,0.1072,0.1164,0.1217,0.1323,0.1382,0.147,0.1525,0.1611,0.1608,0.1702,0.1682,0.1703,0.1723,0.1725,0.1603,0.1562,0.1641,0.1714,0.1713,0.1712,0.171,0.171,0,0.0854,0.0917,0.0938,0.0958,0.1037,0.1082,0.1139,0.1239,0.1298,0.1423,0.1485,0.1581,0.1651,0.1702,0.1747,0.1742,0.1829,0.1822,0.1711,0.1701,0.1806,0.1798,0.188,0.188,0.188,0.188,0.188,0,0.083,0.0866,0.0933,0.0947,0.1013,0.1078,0.1159,0.1234,0.1339,0.1411,0.1512,0.1579,0.1686,0.1744,0.1766,0.1757,0.1845,0.1719,0.1707,0.1808,0.1801,0.181,0.1802,0.1881,0.188,0.188,0.188,0,0.0795,0.0825,0.0868,0.0953,0.0996,0.1047,0.1171,0.1223,0.1334,0.1432,0.1478,0.1606,0.1678,0.1738,0.1819,0.177,0.178,0.1751,0.1838,0.183,0.1614,0.1607,0.1631,0.1627,0.1623,0.162,0.1617,0,0.0759,0.0779,0.0868,0.0899,0.0946,0.1037,0.1096,0.1218,0.1271,0.1432,0.1465,0.1581,0.165,0.1652,0.1717,0.1724,0.1708,0.1687,0.1663,0.1606,0.1593,0.1591,0.1588,0.1611,0.161,0.1609,0.1608,0,0.0726,0.0764,0.0798,0.086,0.0924,0.0989,0.1085,0.1118,0.1247,0.1358,0.1434,0.1478,0.1543,0.1587,0.1594,0.1602,0.1689,0.1649,0.1656,0.1634,0.1583,0.1573,0.1575,0.1596,0.1597,0.1599,0.1599,0,0.0688,0.0706,0.0752,0.0807,0.0882,0.092,0.0982,0.1054,0.1124,0.1294,0.1315,0.1434,0.1539,0.1522,0.1535,0.1521,0.1502,0.1452,0.1469,0.1484,0.1419,0.1331,0.126,0,0,0,0,0,0.0624,0.0644,0.0701,0.0738,0.0814,0.0863,0.0962,0.1017,0.1145,0.1167,0.1239,0.1296,0.1335,0.139,0.1346,0.1445,0.149,0.1384,0.1436,0.1525,0.1539,0.1474,0,0,0,0,0,0,0.0571,0.0618,0.0668,0.0691,0.071,0.078,0.084,0.0925,0.0943,0.1078,0.1111,0.1207,0.1262,0.135,0.1322,0.1332,0.1334,0.145,0.1446,0.1516,0.153,0.1542,0.1479,0,0,0,0,0]},{"header":{"parameterUnit":"m.s-1","parameterCategory":2,"la1":30.2991,"la2":30.254,"lo1":-89.0895,"lo2":-89.0444,"dy":0.0017,"dx":0.0017,"nx":28,"ny":28,"refTime":"2024-04-21T21:00:00:Z","depth":"4","parameterNumber":3,"parameterNumberName":"V-component_of_CURRENTS"},"data":[0,0,0,0,0,0,0,0,0,0,0,0,0,0,0,0,0,0,0,0,0,0,0,0,0,0,0,0,0,0,0,0,0,0,0,0,0,0,0,0,0,0,0,0,0,0,0,0,0,0,0,0,0,0,0,0,0,0,0.0383,0.0383,0,0.0381,0.0381,0.0381,0.0387,0.0387,0.0387,0.0387,0.0342,0.034,0.0339,0,0,0,0,0,0,0,0,0,0,0,0,0,0.0359,0.036,0.0383,0.0383,0.0383,0.0381,0.0381,0.0381,0.0386,0.0387,0.0387,0.0388,0.0342,0.0341,0.0339,0,0,0,0,0,0,0,0,0,0,0,0,0,0.0364,0.036,0.0383,0.0386,0.0387,0.0381,0.0381,0.0381,0.0386,0.0387,0.0387,0.0388,0.0343,0.0341,0.0339,0.0316,0,0,0.0332,0.0331,0,0,0,0,0,0,0,0,0.0364,0.0364,0.0386,0.0386,0.0387,0.0385,0.0356,0.0357,0.0386,0.0385,0.0387,0.0388,0.0353,0.035,0.0348,0.0314,0.0312,0.0332,0.033,0.0329,0.0329,0,0,0,0,0,0,0,0.0363,0.0364,0.0381,0.0386,0.0386,0.0377,0.0379,0.0356,0.0365,0.0385,0.0386,0.0388,0.0353,0.035,0.0346,0.0312,0.0332,0.033,0.0328,0.0328,0.0273,0.0273,0,0,0,0,0,0,0.0367,0.0364,0.0381,0.0381,0.0377,0.0378,0.0379,0.0384,0.0366,0.0365,0.0387,0.0388,0.0353,0.0349,0.0345,0.0336,0.0329,0.0327,0.0326,0.0274,0.0273,0.0273,0,0,0,0,0,0,0.0367,0.0369,0.0381,0.0373,0.0374,0.0378,0.0384,0.0384,0.039,0.0368,0.0366,0.0394,0.0353,0.0348,0.0333,0.0334,0.0326,0.0324,0.0274,0.0274,0.0273,0.0307,0,0,0,0,0,0,0.0366,0.0369,0.0375,0.0374,0.0375,0.0384,0.0383,0.0384,0.039,0.0391,0.0372,0.0368,0.0353,0.0337,0.0331,0.0331,0.0323,0.0274,0.0274,0.0273,0.0306,0.0308,0.031,0,0,0,0,0,0.0365,0.0374,0.0376,0.0378,0.0384,0.0384,0.0384,0.0387,0.039,0.0393,0.0382,0.0369,0.0331,0.0335,0.0328,0.0327,0.0274,0.0274,0.0273,0.0305,0.0308,0.031,0,0,0,0,0,0,0.0358,0.0375,0.0377,0.0388,0.0389,0.0386,0.0389,0.0391,0.0385,0.0388,0.0368,0.0362,0.035,0.0332,0.0337,0.0311,0.03,0.0299,0.0327,0.0329,0.0331,0.034,0.0321,0,0,0,0,0,0.0362,0.0379,0.0382,0.039,0.0391,0.0391,0.0392,0.0396,0.0391,0.039,0.0376,0.0359,0.0342,0.0332,0.0314,0.0297,0.0273,0.0292,0.0294,0.0296,0.0298,0.0262,0.0261,0.0272,0.0272,0.0273,0,0,0.0365,0.0372,0.0384,0.0391,0.0391,0.0397,0.0393,0.04,0.0406,0.0383,0.0383,0.0365,0.0339,0.0326,0.0318,0.0312,0.0278,0.0295,0.0297,0.0299,0.0262,0.0261,0.026,0.0272,0.0272,0.0272,0,0,0.0372,0.0381,0.0396,0.04,0.0406,0.0406,0.041,0.0411,0.0413,0.0409,0.0395,0.0379,0.0353,0.0336,0.0323,0.0321,0.0291,0.0314,0.033,0.0295,0.0293,0.0292,0.0256,0.0252,0.0314,0.0314,0.0314,0,0.037,0.0391,0.0397,0.0406,0.0414,0.0412,0.0425,0.0422,0.0419,0.0417,0.0414,0.0378,0.0358,0.0338,0.034,0.0326,0.0301,0.0325,0.0298,0.0296,0.0294,0.0257,0.0252,0.0316,0.0315,0.0315,0.0315,0,0.0389,0.0404,0.0409,0.0426,0.0434,0.0443,0.0445,0.0448,0.0448,0.0443,0.0428,0.04,0.0379,0.0368,0.0354,0.0331,0.0316,0.0306,0.0294,0.0295,0.0256,0.025,0.0318,0.0317,0.0317,0.0316,0,0,0.0388,0.0419,0.0423,0.0436,0.0449,0.0458,0.0465,0.047,0.0475,0.0461,0.0456,0.0427,0.0412,0.0397,0.0373,0.0344,0.0308,0.0323,0.0321,0.0292,0.0228,0.0211,0.0202,0.0293,0.0292,0.0292,0.0205,0,0.0398,0.0429,0.0442,0.0469,0.0482,0.0488,0.0496,0.05,0.0494,0.0485,0.0453,0.044,0.0422,0.0413,0.0381,0.0328,0.0293,0.0332,0.0228,0.0225,0.0213,0.0195,0.0289,0.02,0.0199,0.0198,0.0197,0,0.0408,0.043,0.0466,0.0496,0.0503,0.0519,0.0537,0.0547,0.0531,0.0523,0.0501,0.0473,0.0433,0.0416,0.0325,0.0351,0.0295,0.025,0.0245,0.0215,0.0196,0.0199,0.0185,0.0186,0.0186,0.0187,0.0188,0,0.0408,0.0443,0.0477,0.0489,0.0521,0.0538,0.0557,0.0559,0.0569,0.0549,0.0543,0.049,0.0463,0.0389,0.0301,0.0312,0.019,0.0191,0.012,0.0118,0.0145,0.0147,0.0121,0.0121,0.0121,0.0121,0.0121,0,0.041,0.0435,0.0483,0.0502,0.0541,0.0558,0.0591,0.0597,0.0599,0.0606,0.0568,0.0546,0.0455,0.0376,0.0297,0.0184,0.0183,0.0117,0.0093,0.016,0.0165,0.014,0.0143,0.0118,0.0119,0.0119,0.012,0,0.04,0.0433,0.0472,0.0522,0.0543,0.0573,0.0625,0.0641,0.0643,0.0648,0.0643,0.058,0.0481,0.0374,0.0243,0.018,0.0074,0.0031,0.0104,0.0086,0.0027,0.0033,-0.0049,-0.005,-0.0052,-0.0053,-0.0053,0,0.0398,0.0418,0.049,0.0523,0.0551,0.0601,0.0635,0.0661,0.068,0.0665,0.0661,0.0573,0.0516,0.0319,0.0207,0.0043,0.0024,-0.003,0.0009,0.0024,0.0009,0.0017,0.0024,-0.0055,-0.0055,-0.0056,-0.0056,0,0.0392,0.0422,0.0462,0.0535,0.0584,0.0635,0.0685,0.0696,0.072,0.0716,0.0672,0.0575,0.0455,0.0314,0.0177,0.0064,0.0009,-0.0042,-0.004,-0.0004,0.0016,0.0003,0.0012,-0.006,-0.0059,-0.0059,-0.0059,0,0.0398,0.042,0.0486,0.0545,0.0606,0.0657,0.0681,0.0705,0.0724,0.0709,0.0686,0.0568,0.0502,0.0322,0.0197,0.0081,0.0063,0.0041,0.0039,0.0042,0.0097,0.0137,0.0072,0,0,0,0,0,0.0414,0.0446,0.0493,0.0565,0.0621,0.0666,0.0713,0.073,0.0742,0.0717,0.0708,0.0599,0.0418,0.0336,0.0217,0.0171,0.0036,0.0028,0.0008,-0.0082,-0.0077,-0.003,0,0,0,0,0,0,0.0433,0.0482,0.0495,0.0571,0.0619,0.0689,0.0721,0.0729,0.0718,0.0709,0.0613,0.0575,0.0395,0.0488,0.0218,0.0181,0.0154,-0.0055,-0.0057,-0.0084,-0.008,-0.0077,-0.0026,0,0,0,0,0]}]]